Regional Weather Roundup
Issued by NWS

Home | Current Version | Previous Version | Graphics & Text | Print | Product List | Glossary On
Versions: 1 2 3 4 5 6 7 8 9 10 11 12 13 14 15 16 17 18 19 20 21 22 23 24 25 26 27 28 29 30 31 32 33 34 35 36 37 38 39 40 41 42 43 44 45 46 47 48 49 50
000
ASUS45 KTFX 201804
RWRMT
MONTANA HOURLY WEATHER ROUNDUP
NATIONAL WEATHER SERVICE GREAT FALLS MT
1204 PM MDT WED AUG 20 2014

NOTE: "FAIR" INDICATES FEW OR NO CLOUDS BELOW 12000 FEET WITH NO
SIGNIFICANT WEATHER AND/OR OBSTRUCTIONS TO VISIBILITY.

* THESE STATIONS ARE NOT UNDER NWS QUALITY CONTROL. THEY DO NOT
   REPORT WEATHER SUCH AS PRECIPITATION OR FOG.

MTZ001>007-043-201900-
WEST OF THE DIVIDE
CITY           SKY/WX    TMP DP  RH WIND       PRES   REMARKS
KALISPELL      CLOUDY    64  55  73 S5        29.88R
MISSOULA       CLOUDY    64  54  70 NW7       29.92S
BUTTE          PTCLDY    70  39  32 VRB5      29.96F
MULLAN PASS    CLOUDY    54  48  80 VRB3      29.99R
* ESSEX        N/A       63  52  68 SE2        N/A
* LINCOLN      N/A       69  47  46 SW6G14     N/A
* LOOKOUT PASS N/A       56  55  96 S2         N/A
* POLSON       N/A       60  55  84 S3G10      N/A
* RONAN APT    CLOUDY    61  57  87 E7         N/A
* SEELEY LAKE  N/A       63  51  65 W3         N/A
* THOMP F APT  CLOUDY    61  49  65 SE5G10     N/A
* YAAK HILL    N/A       71  49  46 NW2        N/A
$$

MTZ008-052>055-201900-
SOUTHWEST MONTANA
CITY           SKY/WX    TMP DP  RH WIND       PRES   REMARKS
BOZEMAN        PTCLDY    72  46  40 NW3       29.92F
DILLON         SUNNY     72  43  35 VRB5      29.93F
W YELLOWSTONE  LGT RAIN  50  48  93 SE5       30.10S VSB 3
* THREE FORKS  PTCLDY    75  55  50 SE6        N/A
* BOULDER HILL N/A       69  39  34 W4         N/A
* RAYNOLDS PAS N/A       56  36  47 SE16G21    N/A
* WHITEHALL    N/A       74  49  41 SW6G11     N/A
* WISE RIVER   N/A       69  48  47 N3         N/A
$$

MTZ009>010-012-014-046-048-049-054-201900-
EAST SLOPES AND CENTRAL MONTANA
CITY           SKY/WX    TMP DP  RH WIND       PRES   REMARKS
CUT BANK       PTSUNNY   70  50  49 NW8       29.86S
GREAT FALLS    SUNNY     75  45  34 VRB3      29.84S
HELENA         PTCLDY    79  45  30 VRB6      29.86F
MALMSTROM AFB  PTCLDY    73  46  38 VRB5      29.85F
* CONRAD       PTSUNNY   72  55  55 N/A        N/A
* DEARBORN     N/A       77  43  30 N1G8       N/A
* EAST GLACIER N/A       62  46  56 W14        N/A
* MONARCH      N/A       67  40  37 N11G17     N/A
* PENDROY      N/A       68  46  45 NE4G11     N/A
* ROGERS PASS  N/A       67  43  42 SE10       N/A
* SAINT MARY   N/A       62  49  63 W4G12      N/A
* SWEET GRASS  N/A       68  52  57 W1G11      N/A
$$

MTZ011-013-016-021-035-040-045-047-050-051-201900-
NORTH CENTRAL MONTANA
CITY           SKY/WX    TMP DP  RH WIND       PRES   REMARKS
HAVRE          PTSUNNY   70  55  59 VRB3      29.82S
LEWISTOWN      PTSUNNY   75  45  34 N9        29.88S
* CHESTER      N/A       69  53  57 E5G10      N/A
* DENTON       N/A       73  50  44 N7G12      N/A
* GEYSER       N/A       74  46  37 NW9G15     N/A
* JUDITH GAP   N/A       70  50  49 NE4G9      N/A
* LOMA         N/A       68  54  61 E7         N/A
$$

MTZ017>020-022>027-061-062-201900-
NORTHEAST MONTANA
CITY           SKY/WX    TMP DP  RH WIND       PRES   REMARKS
GLASGOW        CLOUDY    70  57  64 NW12      29.75R
GLENDIVE       CLOUDY    70  55  59 S7        29.76R
JORDAN         CLOUDY    70  55  59 NW15      29.78S
SIDNEY         CLOUDY    72  55  55 S9        29.72R
WOLF POINT     CLOUDY    79  57  47 W12       29.71R
* BEAVER HILL  N/A       64  58  81 W14        N/A
* CIRCLE       N/A       71  62  73 W13        N/A
* LINDSAY DVD  N/A       67  54  63 W14        N/A
* SACO         N/A       70  57  64 NW12G17    N/A
$$

MTZ028>042-056>058-201900-
SOUTHCENTRAL AND SOUTHEAST MONTANA
CITY           SKY/WX    TMP DP  RH WIND       PRES   REMARKS
BAKER          CLOUDY    72  54  53 NW12G17   29.76R
BILLINGS       CLOUDY    73  52  48 NW8       29.87S
LIVINGSTON     CLOUDY    75  43  32 W12       29.91S
MILES CITY     CLOUDY    73  55  53 W12       29.75R
* LAUREL APT   CLOUDY    72  46  40 N/A        N/A
* ROUNDUP APT  CLOUDY    68  50  53 N/A        N/A
* ALZADA       N/A       82  51  34 W13G20     N/A
* HYSHAM       N/A       72  45  38 NW4G10     N/A
* LAME DEER    N/A       65  52  63 W9G18      N/A
* REED POINT   N/A       79  49  35 W14        N/A
* ROSCOE HILL  N/A       70  42  36 E6         N/A
$$

REGIONAL REPORTS...DAKOTAS
CITY           SKY/WX    TMP DP  RH WIND       PRES   REMARKS
WILLISTON      CLOUDY    75  64  69 SE9       29.71R
DICKINSON      RAIN      72  66  81 SE3       29.71R
BEACH          N/A       75  63  66 CALM      29.75R
CROSBY         PTCLDY    72  66  81 CALM      29.69R
TIOGA          TSTM      70  70 100 SE13      29.74R
WATFORD CITY   SUNNY     77  63  62 SW5       29.70R
BISMARCK       CLOUDY    79  66  65 SE9       29.72F
GRAND FORKS    CLOUDY    81  66  60 SE15      29.78R HI  83
FARGO          PTSUNNY   82  66  58 SE10      29.78S HI  84
BUFFALO SD     CLOUDY    79  63  58 SW7       29.66R
RAPID CITY     PTCLDY    82  59  46 SE7       29.75S HI  82
$$

REGIONAL REPORTS...WYOMING/IDAHO/WASHINGTON
CITY           SKY/WX    TMP DP  RH WIND       PRES   REMARKS
GILLETTE       PTCLDY    81  46  29 NW16G22   29.83S
SHERIDAN       CLOUDY    73  46  38 NW15G23   29.86R
CODY           PTSUNNY   70  48  46 NE12      29.94S
YELLOWSTONE LA CLOUDY    55  43  64 VRB5      30.15S
SALMON         PTSUNNY   66  48  52 CALM      29.90F
MULLAN PASS    CLOUDY    54  48  80 VRB3      29.99S
SAND POINT     PTSUNNY   68  55  63 SW5       29.84S
SPOKANE        CLOUDY    72  52  49 SW15      29.84R

$$



USA.gov is the U.S. government's official web portal to all federal, state and local government web resources and services.